Regional Weather Roundup
Issued by NWS

Home | Current Version | Previous Version | Text Only | Print | Product List | Glossary Off
Versions: 1 2 3 4 5 6 7 8 9 10 11 12 13 14 15 16 17 18 19 20 21 22 23 24 25 26 27 28 29 30 31 32 33 34 35 36 37 38 39 40 41 42 43 44 45 46 47 48 49 50

000
ASUS43 KBIS 031720
RWRND

NORTH DAKOTA REGIONAL WEATHER ROUNDUP
NATIONAL WEATHER SERVICE BISMARCK ND
1100 AM CST TUE MAR 03 2015

NOTE: "FAIR" INDICATES FEW OR NO CLOUDS BELOW 12,000 FEET WITH NO
SIGNIFICANT WEATHER AND/OR OBSTRUCTIONS TO VISIBILITY.


NDZ001>003-009>011-017-031800-
NORTHWEST NORTH DAKOTA

CITY           SKY/WX    TMP DP  RH WIND       PRES   REMARKS
WILLISTON      CLOUDY     5  -6  60 NW22G32   30.10F WCI -16
MINOT          LGT SNOW   3  -6  66 W25G37    30.00F WCI -20
MINOT AFB      CLOUDY     1  -4  76 NW26G36   29.99F BLWGSNOWWCI -23
$$

NDZ018>021-031>035-040>046-031800-
SOUTHWEST NORTH DAKOTA

CITY           SKY/WX    TMP DP  RH WIND       PRES   REMARKS
BISMARCK       PTSUNNY   10  -5  50 NW28G36   30.05R WCI -12
DICKINSON      MOSUNNY    9  -6  50 NW31G39   29.99R WCI -14
GARRISON         N/A      5  -4  66 NW28G36   30.01S WCI -18
HETTINGER ARPT MOSUNNY   12  -4  48 NW30G38   30.01F WCI -10
$$

NDZ004>008-012>016-024-026-027-054-031800-
NORTHEAST NORTH DAKOTA

CITY           SKY/WX    TMP DP  RH WIND       PRES   REMARKS
GRAND FORKS    CLOUDY    10   0  63 NW23G33   29.89R WCI -10
GRND FRKS AFB  MOSUNNY   10  -3  56 N23G36    29.89R WCI -11
DEVILS LAKE    MOSUNNY    3  -8  60 NW28G33   29.91R WCI -21
$$

NDZ022-023-025-028>030-036>039-047>053-031800-
SOUTHEAST NORTH DAKOTA

CITY           SKY/WX    TMP DP  RH WIND       PRES   REMARKS
FARGO          FLURRIES  13   2  61 NW26G38   29.89R WCI  -7
JAMESTOWN      CLOUDY     7  -3  64 NW28G38   29.93R WCI -16
$$




USA.gov is the U.S. government's official web portal to all federal, state and local government web resources and services.